This demonstration page uses our WeatherBlox Daily Observations layout. Learn more.

Hourly Observations for December 6, 2017

Temp ( °F °C ) Dew Point ( °F °C ) Humidity (%) Winds ( mph kmh ) Pressure ( in mb ) Visibility ( mi km ) Precip ( " mm )
12:15 am 00:15 Clear 30 -1 19 -7 64 64 NW 10 17 30.33 1027 10 16.09344 0 0
12:35 am 00:35 Clear 29 -1.7 19 -7 67 67 WNW 10 17 30.33 1027 10 16.09344 0 0
12:55 am 00:55 Clear 28 -2.4 19 -7.5 68 68 WNW 10 17 30.33 1027 10 16.09344 0 0
1:15 am 01:15 Clear 28 -2.5 19 -7.2 70 70 W 8 13 30.33 1027 10 16.09344 0 0
1:35 am 01:35 Clear 25 -4 17 -8.1 73 73 W 9 15 30.36 1028 10 16.09344 0 0
1:55 am 01:55 Clear 24 -4.3 18 -8 76 76 W 7 11 30.36 1028 10 16.09344 0 0
2:15 am 02:15 Partly Cloudy 24 -4.7 17 -8.1 77 77 WNW 6 9 30.36 1028 10 16.09344 0 0
2:35 am 02:35 Cloudy 26 -3.1 20 -6.7 76 76 NNW 12 19 30.36 1028 10 16.09344 0 0
2:55 am 02:55 Partly Cloudy 27 -3 19 -7.4 72 72 WNW 8 13 30.36 1028 10 16.09344 0 0
3:15 am 03:15 Clear 25 -3.8 18 -7.6 75 75 NW 8 13 30.39 1029 10 16.09344 0 0
3:35 am 03:35 Partly Cloudy 29 -1.5 20 -6.5 69 69 W 12 19 30.36 1028 10 16.09344 0 0
3:55 am 03:55 Partly Cloudy 28 -2 19 -7 69 69 W 9 15 30.36 1028 10 16.09344 0 0
4:15 am 04:15 Clear 27 -2.9 19 -7.3 72 72 WNW 12 19 30.36 1028 10 16.09344 0 0
4:35 am 04:35 Mostly Cloudy 28 -2.5 20 -6.9 72 72 WNW 12 19 30.39 1029 10 16.09344 0 0
4:55 am 04:55 Cloudy 30 -1 21 -6.1 69 69 WNW 14 22 30.39 1029 10 16.09344 0 0
5:15 am 05:15 Mostly Cloudy 29 -1.7 21 -6.1 72 72 WNW 13 20 30.36 1028 10 16.09344 0 0
5:35 am 05:35 Mostly Cloudy 29 -1.8 21 -6.1 73 73 WNW 13 20 30.39 1029 10 16.09344 0 0
5:55 am 05:55 Partly Cloudy 27 -3 20 -6.9 75 75 WNW 10 17 30.42 1030 10 16.09344 0 0
6:15 am 06:15 Clear 26 -3.6 20 -6.8 79 79 W 9 15 30.42 1030 10 16.09344 0 0
6:35 am 06:35 Clear 27 -2.8 20 -6.5 76 76 WNW 10 17 30.39 1029 10 16.09344 0 0
6:55 am 06:55 Partly Cloudy 27 -2.9 20 -6.6 76 76 WNW 13 20 30.39 1029 10 16.09344 0 0
7:15 am 07:15 Mostly Cloudy 28 -2 21 -6.2 73 73 WNW 13 20 30.39 1029 10 16.09344 0 0
7:35 am 07:35 Mostly Cloudy 29 -1.5 21 -6 72 72 WNW 13 20 30.39 1029 10 16.09344 0 0
7:55 am 07:55 Partly Cloudy 30 -1.2 21 -6 70 70 WNW 14 22 30.39 1029 10 16.09344 0 0
8:15 am 08:15 Sunny 31 -0.4 22 -5.7 68 68 WNW 16 26 30.39 1029 10 16.09344 0 0
8:35 am 08:35 Sunny 32 0.1 22 -5.5 66 66 WNW 16 26 30.42 1030 10 16.09344 0 0
8:55 am 08:55 Sunny 34 1 22 -5.6 62 62 WNW 16 26 30.39 1029 10 16.09344 0 0
9:15 am 09:15 Sunny 35 1.9 21 -6 56 56 WNW 17 28 30.39 1029 10 16.09344 0 0
9:35 am 09:35 Partly Cloudy 37 2.5 21 -6 54 54 NW 22 35 30.39 1029 10 16.09344 0 0
9:55 am 09:55 Sunny 37 2.5 22 -5.8 55 55 NW 16 26 30.39 1029 10 16.09344 0 0
10:15 am 10:15 Sunny 37 3 22 -5.5 54 54 NW 21 33 30.42 1030 10 16.09344 0 0
10:35 am 10:35 Sunny 38 3.6 23 -5 54 54 NW 18 30 30.36 1028 10 16.09344 0 0
10:55 am 10:55 Partly Cloudy 39 4.1 22 -5.5 50 50 NW 23 37 30.39 1029 10 16.09344 0 0
11:15 am 11:15 Mostly Cloudy 40 4.2 22 -5.8 49 49 NNW 24 39 30.36 1028 10 16.09344 0 0
11:35 am 11:35 Mostly Cloudy 40 4.6 21 -6 47 47 NNW 28 44 30.36 1028 10 16.09344 0 0
11:55 am 11:55 Cloudy 39 4.1 22 -5.6 50 50 NW 28 44 30.36 1028 10 16.09344 0 0
12:15 pm 12:15 Mostly Cloudy 40 4.4 24 -4.6 52 52 NW 29 46 30.36 1028 10 16.09344 0 0
12:35 pm 12:35 Mostly Cloudy 41 4.8 24 -4.6 51 51 WNW 28 44 30.36 1028 10 16.09344 0 0
12:55 pm 12:55 Cloudy 40 4.5 23 -5.1 50 50 NW 21 33 30.36 1028 10 16.09344 0 0
1:15 pm 13:15 Cloudy 40 4.5 22 -5.6 48 48 NW 21 33 30.33 1027 10 16.09344 0 0
1:35 pm 13:35 Cloudy 40 4.7 21 -6.2 45 45 NW 24 39 30.33 1027 10 16.09344 0 0
1:55 pm 13:55 Cloudy 40 4.6 21 -6.1 46 46 NW 26 43 30.33 1027 10 16.09344 0 0
2:15 pm 14:15 Cloudy 40 4.4 21 -6 47 47 NW 22 35 30.33 1027 10 16.09344 0 0
2:35 pm 14:35 Cloudy 40 4.5 20 -6.4 45 45 NNW 23 37 30.33 1027 10 16.09344 0 0
2:55 pm 14:55 Cloudy 40 4.6 20 -6.5 45 45 NW 25 41 30.33 1027 N/A 0.01 0.254
3:15 pm 15:15 Cloudy 36 2 25 -4 65 65 N 22 35 30.39 1029 10 16.09344 0 0
3:35 pm 15:35 Cloudy 35 1.4 25 -3.7 69 69 N 21 33 30.39 1029 10 16.09344 0 0
3:55 pm 15:55 Windy with Snow Likely 33 0.3 27 -2.6 81 81 N 21 33 30.45 1031 1.75 2.816352 0 0
4:15 pm 16:15 Cloudy 33 0.3 22 -5.6 65 65 N 21 33 30.45 1031 10 16.09344 0 0
4:35 pm 16:35 Cloudy 32 0 20 -6.9 60 60 N 24 39 30.45 1031 10 16.09344 0 0
4:55 pm 16:55 Cloudy 31 -0.5 21 -6.2 66 66 N 17 28 30.48 1032 10 16.09344 0 0
5:15 pm 17:15 Cloudy 30 -1.2 19 -7.1 65 65 N 20 31 30.5 1033 10 16.09344 0 0
5:35 pm 17:35 Cloudy 29 -1.8 17 -8.5 61 61 NNW 24 39 30.5 1033 10 16.09344 0 0
5:55 pm 17:55 Cloudy 28 -2.5 16 -9 61 61 NNW 23 37 30.53 1034 10 16.09344 0 0
6:15 pm 18:15 Cloudy 26 -3.2 15 -9.5 62 62 N 18 30 30.53 1034 10 16.09344 0 0
6:35 pm 18:35 Cloudy 26 -3.5 14 -10 61 61 N 15 24 30.53 1034 10 16.09344 0 0
6:55 pm 18:55 Mostly Cloudy 24 -4.5 13 -10.6 63 63 N 16 26 30.59 1036 10 16.09344 0 0
7:15 pm 19:15 Clear 23 -5.1 12 -11 64 64 NNW 18 30 30.59 1036 10 16.09344 0 0
7:35 pm 19:35 Clear 22 -5.8 11 -11.6 64 64 NNW 14 22 30.59 1036 10 16.09344 0 0
7:55 pm 19:55 Clear 20 -6.7 10 -12 66 66 NNW 12 19 30.59 1036 10 16.09344 0 0
8:15 pm 20:15 Clear 20 -6.7 10 -12.1 66 66 NNW 13 20 30.62 1037 10 16.09344 0 0
8:35 pm 20:35 Clear 19 -7.1 10 -12.1 68 68 NNW 12 19 30.65 1038 10 16.09344 0 0
8:55 pm 20:55 Clear 18 -7.9 10 -12.5 70 70 NW 10 17 30.65 1038 10 16.09344 0 0
9:15 pm 21:15 Clear 17 -8.6 10 -12.5 74 74 NW 10 17 30.65 1038 10 16.09344 0 0
9:35 pm 21:35 Clear 16 -9 10 -12.5 76 76 NW 9 15 30.65 1038 10 16.09344 0 0
9:55 pm 21:55 Clear 15 -9.5 9 -12.7 78 78 NNW 8 13 30.65 1038 10 16.09344 0 0
10:15 pm 22:15 Clear 15 -9.2 10 -12.5 77 77 NNW 12 19 30.65 1038 10 16.09344 0 0
10:35 pm 22:35 Clear 15 -9.3 9 -12.8 76 76 NNW 8 13 30.65 1038 10 16.09344 0 0
10:55 pm 22:55 Clear 14 -10 8 -13.2 78 78 NNW 7 11 30.71 1040 10 16.09344 0 0
11:15 pm 23:15 Clear 15 -9.5 9 -13 76 76 NW 10 17 30.71 1040 10 16.09344 0 0
11:35 pm 23:35 Clear 15 -9.5 9 -13 76 76 NNW 12 19 30.71 1040 10 16.09344 0 0
11:55 pm 23:55 Clear 14 -10 8 -13.3 77 77 NW 10 17 30.71 1040 10 16.09344 0 0

Powered by AerisWeather